Location: Unspecified
(0.0000°N, 0.0000°E)
Time: 05:30:06
(UTC+00:00)

Vanguard 2 - Pass Details

Date: 21 November 2019
Orbit: 552 x 2938 km, 32.9° (Epoch: 08 July)

Event Time Altitude Azimuth Distance (km) Brightness Sun altitude
Rises 06:49:13 0° 266° (W) 6,590 11.7 14.9°
Reaches altitude 10° 06:55:25 10° 279° (W) 5,285 11.3 16.4°
Maximum altitude 07:05:50 22° 324° (NW) 3,626 10.6 18.8°
Drops below altitude 10° 07:13:37 10° 11° (N) 3,816 11.0 20.6°
Sets 07:17:12 0° 27° (NNE) 4,420 11.5 21.4°
